Meteo pe oră la Ahwaz

Astăzi, 24 Octombrie, Sâmbătă

Timp Temperatura Precipitaţii Vânt Presiune Umiditate
00:00 +23°C° 0 mm 1 m/s 757 mmHg 37%
01:00 +22°C° 0 mm 1 m/s 757 mmHg 39%
02:00 +22°C° 0 mm 1 m/s 757 mmHg 40%
03:00 +22°C° 0 mm 1 m/s 757 mmHg 42%
04:00 +21°C° 0 mm 1 m/s 757 mmHg 38%
05:00 +21°C° 0 mm 1 m/s 757 mmHg 35%
06:00 +20°C° 0 mm 1 m/s 757 mmHg 31%
07:00 +24°C° 0 mm 1 m/s 758 mmHg 24%
08:00 +28°C° 0 mm 1 m/s 758 mmHg 17%
09:00 +32°C° 0 mm 1 m/s 759 mmHg 10%
10:00 +34°C° 0 mm 1 m/s 758 mmHg 8%
11:00 +36°C° 0 mm 1 m/s 758 mmHg 7%
12:00 +39°C° 0 mm 2 m/s 758 mmHg 6%
13:00 +39°C° 0 mm 1 m/s 757 mmHg 6%
14:00 +40°C° 0 mm 1 m/s 757 mmHg 5%
15:00 +40°C° 0 mm 1 m/s 757 mmHg 5%
16:00 +36°C° 0 mm 2 m/s 757 mmHg 7%
17:00 +32°C° 0 mm 2 m/s 757 mmHg 10%
18:00 +28°C° 0 mm 2 m/s 757 mmHg 13%
19:00 +27°C° 0 mm 2 m/s 758 mmHg 14%
20:00 +27°C° 0 mm 3 m/s 758 mmHg 15%
21:00 +26°C° 0 mm 3 m/s 759 mmHg 17%
22:00 +25°C° 0 mm 3 m/s 758 mmHg 20%
23:00 +24°C° 0 mm 3 m/s 758 mmHg 23%

Mâine, 25 Octombrie, Duminică

Timp Temperatura Precipitaţii Vânt Presiune Umiditate
00:00 +23°C° 0 mm 2 m/s 758 mmHg 25%
01:00 +23°C° 0 mm 2 m/s 758 mmHg 28%
02:00 +21°C° 0 mm 2 m/s 758 mmHg 31%
03:00 +20°C° 0 mm 2 m/s 758 mmHg 34%
04:00 +20°C° 0 mm 2 m/s 759 mmHg 39%
05:00 +20°C° 0 mm 1 m/s 759 mmHg 44%
06:00 +19°C° 0 mm 1 m/s 759 mmHg 50%
07:00 +23°C° 0 mm 1 m/s 759 mmHg 41%
08:00 +26°C° 0 mm 2 m/s 760 mmHg 32%
09:00 +30°C° 0 mm 2 m/s 760 mmHg 23%
10:00 +32°C° 0 mm 2 m/s 759 mmHg 19%
11:00 +34°C° 0 mm 1 m/s 759 mmHg 15%
12:00 +36°C° 0 mm 1 m/s 758 mmHg 11%
13:00 +37°C° 0 mm 1 m/s 758 mmHg 10%
14:00 +37°C° 0 mm 1 m/s 758 mmHg 8%
15:00 +39°C° 0 mm 1 m/s 757 mmHg 7%
16:00 +34°C° 0 mm 1 m/s 757 mmHg 9%
17:00 +30°C° 0 mm 1 m/s 757 mmHg 11%
18:00 +27°C° 0 mm 1 m/s 757 mmHg 13%
19:00 +26°C° 0 mm 1 m/s 758 mmHg 14%
20:00 +25°C° 0 mm 1 m/s 758 mmHg 14%
21:00 +25°C° 0 mm 1 m/s 758 mmHg 15%
22:00 +24°C° 0 mm 2 m/s 758 mmHg 16%
23:00 +24°C° 0 mm 2 m/s 758 mmHg 16%

Poimâine, 26 Octombrie, Luni

Timp Temperatura Precipitaţii Vânt Presiune Umiditate
00:00 +23°C° 0 mm 2 m/s 758 mmHg 17%
01:00 +21°C° 0 mm 2 m/s 758 mmHg 18%
02:00 +21°C° 0 mm 1 m/s 758 mmHg 19%
03:00 +20°C° 0 mm 1 m/s 758 mmHg 20%
04:00 +19°C° 0 mm 1 m/s 759 mmHg 20%
05:00 +19°C° 0 mm 1 m/s 759 mmHg 21%
06:00 +16°C° 0 mm 0 m/s 759 mmHg 22%
07:00 +23°C° 0 mm 1 m/s 760 mmHg 18%
08:00 +27°C° 0 mm 1 m/s 760 mmHg 14%
09:00 +31°C° 0 mm 2 m/s 760 mmHg 10%
10:00 +32°C° 0 mm 1 m/s 760 mmHg 9%
11:00 +34°C° 0 mm 1 m/s 759 mmHg 8%
12:00 +36°C° 0 mm 1 m/s 759 mmHg 7%
13:00 +36°C° 0 mm 1 m/s 759 mmHg 6%
14:00 +38°C° 0 mm 2 m/s 758 mmHg 6%
15:00 +38°C° 0 mm 2 m/s 758 mmHg 5%
16:00 +34°C° 0 mm 2 m/s 758 mmHg 7%
17:00 +30°C° 0 mm 1 m/s 758 mmHg 9%
18:00 +26°C° 0 mm 1 m/s 758 mmHg 11%
19:00 +26°C° 0 mm 1 m/s 758 mmHg 12%
20:00 +25°C° 0 mm 1 m/s 759 mmHg 12%
21:00 +25°C° 0 mm 1 m/s 759 mmHg 13%
22:00 +25°C° 0 mm 1 m/s 758 mmHg 13%
23:00 +25°C° 0 mm 2 m/s 758 mmHg 12%

, 27 Octombrie, Marţi

Timp Temperatura Precipitaţii Vânt Presiune Umiditate
00:00 +24°C° 0 mm 2 m/s 758 mmHg 12%
01:00 +23°C° 0 mm 1 m/s 758 mmHg 14%
02:00 +22°C° 0 mm 1 m/s 758 mmHg 15%
03:00 +19°C° 0 mm 0 m/s 758 mmHg 16%
04:00 +21°C° 0 mm 1 m/s 758 mmHg 16%
05:00 +22°C° 0 mm 1 m/s 758 mmHg 17%
06:00 +21°C° 0 mm 2 m/s 758 mmHg 18%
07:00 +25°C° 0 mm 2 m/s 759 mmHg 16%
08:00 +29°C° 0 mm 3 m/s 759 mmHg 13%
09:00 +33°C° 0 mm 3 m/s 759 mmHg 11%
10:00 +35°C° 0 mm 3 m/s 759 mmHg 10%
11:00 +36°C° 0 mm 3 m/s 758 mmHg 8%
12:00 +38°C° 0 mm 3 m/s 758 mmHg 6%
13:00 +38°C° 0 mm 3 m/s 758 mmHg 6%
14:00 +40°C° 0 mm 4 m/s 757 mmHg 6%
15:00 +40°C° 0 mm 4 m/s 757 mmHg 5%
16:00 +36°C° 0 mm 3 m/s 757 mmHg 7%
17:00 +33°C° 0 mm 3 m/s 757 mmHg 8%
18:00 +29°C° 0 mm 3 m/s 757 mmHg 10%
19:00 +29°C° 0 mm 3 m/s 757 mmHg 10%
20:00 +28°C° 0 mm 3 m/s 757 mmHg 11%
21:00 +27°C° 0 mm 3 m/s 758 mmHg 12%
22:00 +26°C° 0 mm 3 m/s 758 mmHg 12%
23:00 +26°C° 0 mm 3 m/s 758 mmHg 13%

27 Octombrie, Marţi

Timp Temperatura Precipitaţii Vânt Presiune Umiditate
00:00 +24°C° 0 mm 2 m/s 758 mmHg 12%
01:00 +23°C° 0 mm 1 m/s 758 mmHg 14%
02:00 +22°C° 0 mm 1 m/s 758 mmHg 15%
03:00 +19°C° 0 mm 0 m/s 758 mmHg 16%
04:00 +21°C° 0 mm 1 m/s 758 mmHg 16%
05:00 +22°C° 0 mm 1 m/s 758 mmHg 17%
06:00 +21°C° 0 mm 2 m/s 758 mmHg 18%
07:00 +25°C° 0 mm 2 m/s 759 mmHg 16%
08:00 +29°C° 0 mm 3 m/s 759 mmHg 13%
09:00 +33°C° 0 mm 3 m/s 759 mmHg 11%
10:00 +35°C° 0 mm 3 m/s 759 mmHg 10%
11:00 +36°C° 0 mm 3 m/s 758 mmHg 8%
12:00 +38°C° 0 mm 3 m/s 758 mmHg 6%
13:00 +38°C° 0 mm 3 m/s 758 mmHg 6%
14:00 +40°C° 0 mm 4 m/s 757 mmHg 6%
15:00 +40°C° 0 mm 4 m/s 757 mmHg 5%
16:00 +36°C° 0 mm 3 m/s 757 mmHg 7%
17:00 +33°C° 0 mm 3 m/s 757 mmHg 8%
18:00 +29°C° 0 mm 3 m/s 757 mmHg 10%
19:00 +29°C° 0 mm 3 m/s 757 mmHg 10%
20:00 +28°C° 0 mm 3 m/s 757 mmHg 11%
21:00 +27°C° 0 mm 3 m/s 758 mmHg 12%
22:00 +26°C° 0 mm 3 m/s 758 mmHg 12%
23:00 +26°C° 0 mm 3 m/s 758 mmHg 13%

28 Octombrie, Miercuri

Timp Temperatura Precipitaţii Vânt Presiune Umiditate
00:00 +25°C° 0 mm 3 m/s 758 mmHg 14%
01:00 +24°C° 0 mm 2 m/s 757 mmHg 14%
02:00 +23°C° 0 mm 2 m/s 757 mmHg 14%
03:00 +21°C° 0 mm 2 m/s 757 mmHg 15%
04:00 +21°C° 0 mm 2 m/s 758 mmHg 15%
05:00 +21°C° 0 mm 2 m/s 758 mmHg 14%
06:00 +21°C° 0 mm 3 m/s 758 mmHg 14%
07:00 +25°C° 0 mm 3 m/s 758 mmHg 12%
08:00 +27°C° 0 mm 2 m/s 759 mmHg 11%
09:00 +30°C° 0 mm 2 m/s 759 mmHg 9%
10:00 +32°C° 0 mm 2 m/s 759 mmHg 8%
11:00 +35°C° 0 mm 3 m/s 759 mmHg 7%
12:00 +37°C° 0 mm 3 m/s 758 mmHg 6%
13:00 +37°C° 0 mm 3 m/s 758 mmHg 6%
14:00 +38°C° 0 mm 3 m/s 758 mmHg 6%
15:00 +38°C° 0 mm 3 m/s 757 mmHg 5%
16:00 +34°C° 0 mm 2 m/s 757 mmHg 8%
17:00 +29°C° 0 mm 2 m/s 757 mmHg 10%
18:00 +25°C° 0 mm 1 m/s 758 mmHg 12%
19:00 +24°C° 0 mm 1 m/s 758 mmHg 13%
20:00 +22°C° 0 mm 0 m/s 758 mmHg 15%
21:00 +21°C° 0 mm 0 m/s 758 mmHg 16%
22:00 +21°C° 0 mm 0 m/s 758 mmHg 17%
23:00 +22°C° 0 mm 1 m/s 758 mmHg 18%

29 Octombrie, Joi

Timp Temperatura Precipitaţii Vânt Presiune Umiditate
00:00 +22°C° 0 mm 1 m/s 758 mmHg 20%
01:00 +21°C° 0 mm 1 m/s 758 mmHg 20%
02:00 +21°C° 0 mm 1 m/s 758 mmHg 20%
03:00 +20°C° 0 mm 1 m/s 758 mmHg 21%
04:00 +21°C° 0 mm 1 m/s 759 mmHg 19%
05:00 +20°C° 0 mm 2 m/s 759 mmHg 17%
06:00 +21°C° 0 mm 2 m/s 759 mmHg 15%
07:00 +25°C° 0 mm 2 m/s 759 mmHg 13%
08:00 +28°C° 0 mm 2 m/s 760 mmHg 11%
09:00 +32°C° 0 mm 2 m/s 760 mmHg 8%
10:00 +34°C° 0 mm 2 m/s 760 mmHg 8%
11:00 +36°C° 0 mm 2 m/s 760 mmHg 7%
12:00 +37°C° 0 mm 1 m/s 759 mmHg 6%
13:00 +37°C° 0 mm 1 m/s 759 mmHg 6%
14:00 +39°C° 0 mm 1 m/s 759 mmHg 5%
15:00 +39°C° 0 mm 1 m/s 758 mmHg 5%
16:00 +36°C° 0 mm 2 m/s 758 mmHg 7%
17:00 +32°C° 0 mm 2 m/s 759 mmHg 8%
18:00 +28°C° 0 mm 2 m/s 759 mmHg 9%
19:00 +27°C° 0 mm 2 m/s 759 mmHg 10%
20:00 +26°C° 0 mm 2 m/s 759 mmHg 11%
21:00 +25°C° 0 mm 1 m/s 759 mmHg 12%
22:00 +24°C° 0 mm 1 m/s 759 mmHg 13%
23:00 +23°C° 0 mm 1 m/s 759 mmHg 13%
Arată mai mult

Formular de consimțământ

Meteoprog și furnizorii noștri de servicii pot stoca și accesa date personale, precum cookies, identificatori de dispozitiv sau alte tehnologii similare pe dispozitivul dumneavoastră și procesa astfel de date pentru a personaliza conținutul și reclamele, dar și pentru a oferi caracteristici de social media și pentru a analiza traficul.

  • Stocarea și/sau accesarea informațiilor pe dispozitivul dumneavoastră

    Cookies, identificatori de dispozitiv sau alte informații pot fi stocate sau accesate pe dispozitiv în scopurile indicate mai sus.

  • Reclame și conținut personalizat, evaluarea reclamelor și a conținutului, informații despre audiențe și dezvoltarea produselor

    Reclamele și conținutul pot fi personalizate pe baza unui profil. Pot fi adăugate date suplimentare pentru a personaliza mai bine reclamele și conținutul. Performanța reclamelor și conținutului poate fi măsurată. Pot fi obținute informații despre utilizatorii care au văzut reclamele și conținutul. Aceste date pot fi utilizate pentru a dezvolta sau îmbunătăți experiența utilizatorilor, sistemele și software-ul.

Dând clic pe ‘Sunt de acord’, permiteți utilizarea cookie-urilor menționate, a identificatorilor de dispozitiv, balizelor web sau altor tehnologii similare. Setările pot fi modificate din browser-ul dispozitivului dumneavoastră.

În anumite scopuri, interesele legitime pot prima asupra consimțământului. Puteți citi mai multe informații în acest sens în Politica privind Confidențialitatea Datelor și Cookie.